カタログに戻る

TELSTAR 1

運用中通信UNKNOWN
NORAD 340·PAYLOAD·🇺🇸 United States

打ち上げ Jul 10, 1962 から Cape Canaveral Space Force Station

Loading…

次のパス (今後24時間)

TLE

最新Source: Space-Track

元期: Sep 6, 2026, 17:07 UTC

1 00340U 62029A   26249.71336394 -.00000081  00000-0 -43408-3 0  9998
2 00340  44.8063 168.3264 2428557 304.2954  40.2356  9.12895588139901

AllMySatでTELSTAR 1をリアルタイム追跡

Download on the App Store